Temperature
19 19 18 18 18 18 17 17 17 17 17 16 16 16 16 16 16 16 16 16 16 16 16 15 15 15 15 15 15 15 14 14 14 14 14 14 14 14 13 13 14 13 13
19 19 18 18 18 18 17 17 17 17 16 16 16 16 16 16 16 16 16 16 16 16 15 15 15 15 15 15 15 14 14 14 14 14 14 13 13 13 13 13 13 13 13
19 19 18 18 18 17 17 17 17 17 16 16 16 16 16 16 16 16 16 16 15 15 15 15 15 15 15 15 14 14 14 14 14 14 14 13 13 13 13 13 13 13 13
18 18 18 18 18 17 17 17 17 17 16 16 16 16 16 16 16 16 16 16 15 15 15 15 15 15 15 14 14 14 14 14 14 14 14 14 13 13 13 13 13 13 13
18 18 18 18 18 17 17 17 17 16 16 16 16 16 16 16 16 16 16 15 15 15 15 15 15 15 15 14 14 14 14 14 14 14 14 14 13 13 13 12 12 12 12
18 18 18 18 18 17 17 17 17 16 16 16 16 16 16 16 16 16 16 15 15 15 15 15 15 15 15 14 14 14 14 14 14 14 14 14 14 13 13 13 12 12 12
18 18 18 18 17 17 17 17 17 16 16 16 16 16 16 16 16 16 15 15 15 15 15 15 15 15 15 14 14 14 14 14 14 14 14 14 14 14 13 13 12 12 12
18 18 18 18 17 17 17 17 17 16 16 16 16 16 16 16 16 15 15 15 15 15 15 15 15 15 15 14 14 14 14 14 14 14 14 14 14 13 13 13 13 12 12
17 17 18 17 17 17 17 17 16 16 16 16 16 16 16 16 15 15 15 15 15 15 15 15 15 15 15 14 14 14 14 14 14 14 14 14 14 13 13 13 13 13 12
17 17 17 17 17 17 17 16 16 16 16 16 16 16 16 15 15 15 15 15 15 15 15 15 15 15 14 14 14 14 14 14 14 14 14 13 13 13 13 13 13 13 13
17 17 17 17 17 16 16 16 16 16 16 16 15 15 15 15 15 15 15 15 15 15 15 15 15 14 14 14 14 14 14 14 14 14 13 13 13 13 13 13 12 12 12
16 16 16 16 16 16 16 16 16 16 16 15 15 15 15 15 15 15 15 15 15 15 14 14 14 14 14 14 14 14 14 14 14 13 13 13 13 13 13 13 12 12 12
16 16 16 16 16 16 16 15 15 15 15 15 15 15 15 15 15 15 15 14 14 14 14 14 14 14 14 14 14 14 14 14 13 13 13 13 13 13 13 12 12 12 12
16 16 16 15 15 15 15 15 15 15 15 15 15 15 15 14 14 14 14 14 14 14 14 14 14 14 14 14 14 14 13 13 13 13 13 13 13 13 12 12 12 12 11
16 15 15 15 15 15 15 15 15 15 14 14 14 14 14 14 14 14 14 14 14 14 14 14 14 14 14 13 13 13 13 13 13 13 13 13 12 12 12 12 12 12 11
15 15 15 15 15 15 15 15 14 14 14 14 14 14 14 14 14 14 14 14 14 14 14 14 13 13 13 13 13 13 13 13 13 13 13 12 12 12 12 12 12 11 11
15 15 15 15 15 15 15 14 14 14 14 14 14 14 14 13 14 14 13 13 13 13 13 13 13 13 13 13 13 13 13 13 13 12 12 12 12 12 12 12 12 11 11
15 15 15 15 15 15 14 14 14 14 13 13 13 13 13 13 13 13 13 13 13 13 13 13 13 13 13 13 13 13 12 12 12 12 12 12 12 12 11 11 11 11 11
16 15 15 15 15 15 14 14 13 13 13 13 13 13 13 13 13 13 13 13 13 12 12 12 12 12 12 12 12 12 12 12 12 12 12 12 12 11 11 11 11 11 11
15 15 15 15 15 14 14 14 13 13 13 13 13 13 13 13 12 12 12 12 12 12 12 12 12 12 12 12 12 12 12 12 12 12 12 12 11 11 11 11 11 11 11
15 15 15 15 14 14 14 13 13 13 13 13 12 12 12 12 12 12 12 12 12 12 12 12 12 12 12 12 12 12 12 12 12 11 11 11 11 11 11 10 10 10 10
15 14 14 14 14 13 13 13 13 13 12 12 12 12 12 12 12 11 12 11 11 11 11 11 11 11 11 11 11 11 11 11 11 11 11 11 11 11 10 10 10 10 10
14 14 14 14 13 13 13 13 13 12 12 12 12 12 12 11 11 11 11 11 11 11 11 11 11 11 11 11 11 11 11 11 11 11 11 10 10 10 10 10 10 10 9
14 14 13 13 13 13 13 12 12 12 12 12 12 11 11 11 11 11 11 11 11 11 11 11 11 10 10 10 10 10 10 10 10 10 10 10 10 10 10 9 9 9 9
13 13 13 13 13 12 12 12 12 12 12 11 11 11 11 11 11 11 11 11 11 11 10 10 10 10 10 10 10 10 10 10 10 10 10 10 10 10 10 9 9 9 9
13 13 13 13 12 12 12 12 12 12 11 11 11 11 11 11 11 11 10 10 10 10 10 10 10 10 10 10 10 10 10 9 9 9 9 9 9 9 9 9 9 9 8
Wind_Speed
4 2 2 2 2 2 2 2 3 2 2 2 2 2 1 0 0 1 2 3 5 6 6 4 4 4 4 4 5 4 5 3 3 4 4 4 5 5 4 5 5 6 7
3 2 2 2 2 3 3 2 3 2 2 2 2 2 2 1 1 1 2 2 4 5 5 5 4 4 4 4 4 4 3 2 2 3 2 2 4 4 5 4 4 4 6
6 4 3 3 3 3 4 4 3 3 2 2 2 3 2 2 1 1 0 1 3 4 5 5 5 4 4 4 4 4 4 3 1 1 3 2 1 1 3 3 4 4 4
5 4 4 4 4 4 4 3 3 3 3 3 4 5 4 2 2 1 1 1 2 3 4 5 5 4 4 4 3 3 3 4 2 0 1 2 3 2 1 2 3 3 3
5 5 5 5 4 3 3 3 4 3 3 3 4 5 3 2 2 1 2 1 1 2 3 4 4 4 4 4 3 3 2 2 3 2 1 2 2 2 2 1 2 2 2
3 3 3 2 1 1 2 2 3 3 3 3 4 4 4 3 3 2 2 1 1 1 2 4 4 3 3 4 3 3 3 2 2 2 2 2 2 2 2 2 1 1 2
3 3 3 3 2 2 3 3 3 2 2 3 3 4 4 4 4 3 3 3 2 1 2 3 3 3 3 4 3 3 2 3 3 3 2 2 2 2 3 3 2 1 1
2 3 3 3 3 3 3 4 4 3 3 3 3 3 3 3 3 3 3 4 3 3 3 3 4 4 4 4 4 3 2 2 3 3 3 2 2 2 3 3 4 2 0
1 2 2 2 2 3 3 4 4 3 3 3 3 3 3 3 3 2 3 3 2 2 3 3 3 3 4 4 4 3 2 2 2 2 2 2 2 2 2 3 4 4 2
1 0 1 2 2 2 2 3 4 4 3 3 3 2 2 2 2 2 3 3 3 2 3 3 3 3 3 4 3 3 2 3 2 2 2 2 1 2 2 3 2 3 3
0 1 1 1 1 1 1 1 2 2 2 2 2 2 2 2 2 2 3 3 2 2 3 4 3 4 3 3 4 3 3 3 2 2 2 2 2 2 2 2 2 2 2
1 0 0 1 1 1 0 1 1 2 2 2 2 2 2 2 2 2 2 2 2 2 2 3 3 3 3 4 4 4 3 3 3 3 2 2 2 2 2 2 2 2 2
0 0 0 0 0 0 1 1 1 2 2 2 3 2 2 2 2 2 3 3 3 2 2 2 3 3 3 3 4 4 4 3 3 3 3 3 3 3 2 3 2 2 2
1 1 1 2 1 1 1 1 1 1 2 2 3 2 2 2 3 3 3 3 3 2 2 2 2 2 3 3 3 4 3 3 3 3 3 3 4 4 4 3 3 3 3
2 2 3 3 2 2 2 2 1 1 2 3 3 3 3 2 2 2 2 2 2 2 2 2 1 1 2 3 3 4 4 3 3 2 2 3 4 5 5 4 4 5 4
4 4 4 4 4 4 4 3 2 2 3 3 4 3 2 2 2 2 2 2 2 2 2 2 2 1 2 3 4 4 3 3 3 2 2 2 2 4 5 6 6 7 6
5 5 5 5 5 5 5 5 4 2 3 3 2 2 2 2 2 2 2 2 2 2 2 2 2 2 2 3 4 4 3 4 3 3 2 2 2 3 3 4 5 5 6
5 5 5 5 5 4 4 3 3 3 3 2 2 1 2 3 2 2 3 2 2 3 2 2 2 2 2 2 3 4 3 3 2 3 4 3 2 3 4 4 3 2 2
5 5 5 4 3 4 4 4 3 3 3 3 2 2 2 3 3 3 3 3 2 2 2 2 3 2 2 2 4 4 2 2 2 2 3 4 3 5 6 5 4 2 1
3 2 1 1 3 4 4 5 4 3 4 4 3 2 3 3 4 4 3 2 2 3 2 2 2 2 2 3 4 4 2 2 2 1 2 4 5 6 7 5 5 5 3
1 0 1 2 2 4 5 5 4 5 5 3 2 2 3 3 4 3 3 3 2 2 2 1 1 2 2 3 4 4 3 3 2 2 2 3 6 6 7 6 5 6 5
1 0 1 1 1 4 5 5 5 5 3 3 2 2 3 3 3 3 2 3 3 3 2 2 1 1 2 3 4 5 4 4 3 3 3 3 6 6 6 5 5 6 5
1 1 1 1 1 2 4 6 5 4 3 3 3 3 2 3 3 4 4 3 3 3 3 2 2 2 1 2 4 5 5 4 3 3 4 4 5 5 4 5 6 5 3
1 1 1 1 2 3 3 4 3 4 4 4 3 3 3 2 3 3 4 4 4 4 3 3 3 3 2 2 2 2 3 3 2 2 2 3 3 3 3 3 3 3 4
1 1 2 3 4 3 3 3 3 4 5 4 4 3 3 3 3 3 4 5 5 6 5 5 5 4 4 5 6 4 4 3 3 2 1 1 1 2 2 2 2 2 3
2 2 3 3 3 3 3 3 3 5 5 4 4 4 3 3 3 3 2 3 4 6 7 6 5 5 6 6 6 7 7 6 6 3 2 3 4 4 4 4 3 3 4
Wind_Direction
247 223 204 174 155 151 149 152 154 149 132 119 130 137 147 162 118 138 136 142 141 141 138 135 128 125 125 130 126 115 102 92 98 84 57 38 44 50 42 41 48 44 41
236 214 196 173 177 178 176 167 172 163 165 155 153 148 143 146 165 117 93 126 140 146 149 140 141 137 129 126 129 124 119 122 98 101 90 39 17 23 32 35 46 38 41
221 214 199 199 192 195 194 187 182 177 177 155 128 109 80 64 65 77 97 100 137 145 145 145 141 143 143 151 156 148 140 152 128 104 129 129 178 346 2 24 37 33 33
217 205 201 205 206 213 199 180 172 177 181 163 155 153 160 169 193 189 180 134 134 144 147 144 144 146 146 152 164 153 152 149 165 113 72 133 149 145 12 352 7 28 32
212 205 208 213 210 199 190 174 165 180 179 167 165 159 160 170 151 137 127 115 129 141 148 149 146 150 157 162 163 153 159 159 165 160 140 103 86 118 147 223 336 7 11
210 207 202 185 185 169 155 154 167 186 174 165 158 160 160 150 141 162 165 169 153 151 150 147 150 156 158 167 175 170 170 169 163 161 158 162 161 168 158 176 208 320 336
184 187 178 173 181 174 160 153 157 170 165 162 167 173 172 169 179 189 184 180 186 196 194 169 165 169 172 169 159 155 168 172 172 178 185 182 186 161 156 156 169 172 322
180 192 197 189 190 185 167 160 167 178 171 167 172 165 171 175 188 190 179 187 198 203 190 177 176 180 175 171 163 163 174 163 174 179 174 171 187 167 164 162 155 148 342
203 212 202 189 197 192 186 181 183 188 182 178 171 162 171 174 178 178 175 185 194 193 182 177 185 186 177 172 166 166 169 159 175 183 176 175 189 177 174 163 160 157 173
343 257 221 215 209 202 195 176 185 192 190 180 183 178 183 182 174 163 178 181 184 178 178 178 185 187 182 176 164 166 171 155 177 182 169 179 192 172 161 160 159 157 163
254 265 254 243 195 128 134 169 180 175 174 182 182 169 176 169 158 167 185 180 172 165 179 178 178 181 176 176 169 176 174 172 182 190 181 198 177 163 157 148 143 143 141
208 253 296 41 63 85 113 187 199 193 191 176 166 173 169 150 150 172 182 166 160 156 169 169 171 180 177 174 175 182 177 181 192 200 183 199 170 154 153 152 152 152 148
129 75 63 99 188 186 211 214 205 207 189 153 148 148 151 156 178 193 183 168 164 165 157 156 170 181 182 178 181 177 178 185 196 197 190 194 163 165 162 156 157 153 135
195 205 213 229 232 219 213 211 229 202 172 150 150 160 180 186 191 189 178 172 166 169 171 178 180 175 178 184 178 169 172 178 192 197 191 186 177 180 173 168 167 149 131
268 241 230 228 238 242 244 227 217 200 185 169 172 191 192 177 165 163 165 164 164 167 160 156 161 159 176 189 176 175 178 174 175 179 186 186 185 184 175 170 169 158 149
253 248 244 228 225 229 223 209 208 200 181 181 192 190 168 165 160 164 158 153 155 147 143 159 168 191 211 188 180 173 174 172 171 177 194 189 187 192 182 174 167 163 165
253 239 234 233 228 221 208 199 196 175 162 177 181 179 174 182 191 174 154 161 162 151 166 183 185 223 221 199 182 173 172 175 183 185 186 194 193 176 170 167 165 171 172
255 246 238 238 234 214 200 187 164 160 170 174 172 174 182 189 188 177 179 180 174 177 188 199 201 199 211 191 170 167 165 171 188 198 191 184 193 177 164 153 145 160 182
251 246 233 227 214 198 186 168 166 166 170 184 201 203 190 191 188 196 193 187 175 186 200 197 189 180 207 193 176 158 158 167 203 216 197 185 190 182 162 154 158 169 220
269 266 234 181 187 194 170 162 174 179 202 211 215 207 193 190 197 199 188 167 167 185 187 189 191 187 208 208 183 165 165 173 204 219 213 196 193 183 171 174 174 185 213
279 299 147 173 191 177 164 171 181 204 214 207 200 194 193 195 193 180 165 161 162 152 158 175 211 209 208 208 192 180 177 188 196 210 227 225 200 193 188 186 190 197 184
359 59 132 153 156 164 167 182 206 215 201 184 186 196 198 198 180 165 166 165 161 159 174 176 230 256 224 212 212 201 202 198 194 213 222 220 202 199 193 193 192 181 162
229 191 158 151 179 181 183 197 215 198 182 182 196 205 202 189 177 172 172 168 171 179 191 193 218 245 247 229 225 218 212 209 210 217 209 207 199 193 196 196 189 176 168
259 234 159 190 240 232 220 216 206 182 177 187 201 198 188 189 185 184 180 179 186 192 198 205 220 236 243 234 223 219 219 206 206 216 200 188 177 179 186 190 196 194 193
238 214 212 227 243 240 239 228 194 177 182 193 199 197 193 191 195 202 202 199 206 205 203 211 209 211 231 237 221 205 209 206 203 179 166 169 168 189 207 208 207 204 199
227 231 232 237 248 238 231 232 206 187 182 190 199 201 199 202 200 201 235 240 228 229 225 218 213 227 234 234 224 223 219 210 188 172 205 212 211 213 214 215 220 218 217
Height
1529 1531 1532 1533 1534 1534 1535 1536 1536 1537 1537 1538 1539 1540 1541 1542 1543 1543 1544 1545 1546 1546 1547 1548 1549 1550 1551 1551 1552 1552 1553 1553 1553 1553 1553 1553 1553 1554 1554 1554 1554 1554 1553
1528 1529 1530 1531 1532 1533 1534 1535 1535 1536 1537 1537 1538 1539 1540 1541 1542 1543 1544 1545 1545 1546 1547 1548 1549 1550 1550 1551 1552 1552 1553 1553 1553 1553 1553 1554 1555 1554 1555 1555 1554 1554 1554
1526 1527 1528 1530 1531 1532 1532 1533 1534 1535 1536 1537 1538 1539 1540 1541 1542 1543 1543 1544 1545 1546 1546 1547 1548 1549 1550 1551 1552 1553 1553 1553 1554 1554 1554 1554 1554 1555 1555 1555 1555 1555 1554
1524 1525 1527 1528 1529 1530 1531 1532 1533 1534 1535 1536 1537 1538 1539 1540 1541 1542 1543 1544 1544 1545 1546 1547 1548 1549 1550 1551 1551 1552 1553 1553 1553 1554 1554 1555 1554 1554 1555 1555 1555 1555 1554
1522 1524 1525 1526 1527 1529 1530 1531 1533 1533 1534 1535 1536 1537 1538 1539 1540 1541 1542 1543 1544 1545 1545 1547 1547 1548 1549 1550 1551 1552 1552 1553 1553 1553 1553 1553 1554 1554 1554 1554 1554 1554 1554
1521 1522 1524 1525 1526 1527 1529 1530 1531 1533 1534 1535 1536 1537 1538 1539 1540 1541 1541 1542 1543 1544 1545 1546 1547 1548 1549 1549 1550 1551 1551 1552 1552 1552 1553 1553 1553 1553 1553 1552 1553 1553 1553
1519 1520 1522 1523 1524 1526 1527 1529 1530 1531 1533 1534 1535 1536 1537 1538 1538 1539 1540 1541 1542 1543 1544 1545 1546 1546 1547 1548 1549 1550 1550 1551 1551 1551 1551 1551 1552 1552 1552 1552 1551 1552 1552
1518 1519 1520 1522 1523 1525 1526 1527 1529 1530 1531 1533 1534 1535 1536 1536 1537 1538 1539 1540 1541 1542 1543 1544 1544 1545 1546 1547 1547 1548 1549 1549 1550 1550 1550 1550 1550 1551 1550 1550 1550 1550 1551
1517 1518 1519 1521 1522 1523 1525 1526 1527 1529 1530 1531 1532 1533 1534 1535 1536 1536 1537 1538 1539 1540 1541 1542 1543 1544 1544 1545 1546 1546 1547 1547 1548 1548 1549 1549 1549 1549 1549 1549 1549 1550 1549
1516 1517 1519 1520 1520 1522 1523 1525 1526 1527 1528 1530 1531 1531 1532 1533 1534 1535 1535 1536 1537 1538 1539 1540 1541 1542 1542 1543 1544 1545 1545 1546 1546 1546 1547 1547 1547 1547 1547 1547 1548 1548 1548
1516 1517 1518 1519 1520 1520 1522 1523 1524 1525 1527 1528 1529 1530 1530 1531 1532 1533 1533 1534 1535 1536 1537 1538 1539 1540 1540 1541 1542 1543 1543 1543 1544 1544 1544 1544 1545 1545 1545 1545 1546 1546 1546
1516 1516 1517 1518 1518 1519 1520 1521 1523 1524 1525 1526 1527 1528 1528 1529 1530 1531 1532 1532 1533 1534 1535 1536 1537 1537 1538 1539 1540 1540 1541 1541 1542 1542 1542 1542 1543 1543 1543 1544 1544 1544 1545
1514 1515 1515 1516 1516 1517 1518 1520 1521 1522 1523 1524 1525 1526 1527 1527 1528 1529 1530 1530 1531 1532 1533 1534 1534 1535 1536 1537 1537 1538 1538 1539 1539 1539 1540 1540 1540 1541 1541 1541 1542 1542 1543
1513 1513 1514 1514 1515 1516 1516 1518 1519 1520 1521 1522 1523 1524 1525 1525 1526 1527 1528 1529 1529 1530 1531 1532 1532 1533 1534 1534 1535 1536 1536 1536 1537 1537 1537 1538 1538 1538 1539 1539 1540 1540 1541
1511 1511 1511 1512 1513 1513 1514 1515 1517 1518 1519 1520 1521 1522 1523 1524 1524 1525 1526 1527 1527 1528 1529 1530 1530 1531 1531 1532 1533 1533 1534 1534 1534 1535 1535 1535 1536 1536 1537 1537 1538 1538 1538
1509 1509 1509 1509 1510 1511 1511 1513 1514 1515 1516 1517 1518 1519 1520 1521 1522 1523 1524 1525 1525 1526 1527 1527 1528 1528 1529 1530 1530 1531 1531 1532 1532 1532 1533 1533 1533 1534 1535 1535 1536 1536 1536
1506 1506 1506 1506 1507 1508 1509 1510 1512 1513 1513 1514 1516 1517 1517 1519 1519 1520 1521 1522 1523 1523 1524 1525 1525 1526 1527 1527 1528 1528 1529 1529 1529 1530 1530 1531 1531 1532 1532 1533 1533 1533 1534
1503 1502 1502 1503 1504 1505 1507 1508 1509 1510 1511 1512 1513 1514 1515 1516 1517 1518 1519 1520 1520 1521 1521 1522 1523 1523 1524 1524 1525 1526 1526 1527 1527 1527 1528 1528 1528 1529 1530 1530 1530 1531 1532
1500 1499 1499 1499 1500 1502 1503 1505 1506 1507 1508 1509 1510 1511 1512 1513 1514 1515 1516 1517 1518 1518 1519 1519 1520 1520 1521 1522 1522 1523 1523 1524 1524 1524 1525 1525 1526 1526 1527 1528 1528 1528 1529
1497 1496 1496 1496 1497 1498 1500 1501 1502 1504 1505 1506 1508 1509 1510 1511 1512 1513 1514 1514 1515 1516 1516 1517 1518 1518 1518 1519 1520 1521 1521 1521 1521 1521 1522 1522 1523 1524 1524 1525 1525 1525 1526
1495 1494 1493 1493 1494 1495 1497 1498 1499 1501 1502 1504 1505 1506 1507 1508 1509 1510 1511 1512 1513 1513 1514 1515 1515 1516 1516 1517 1517 1518 1518 1518 1518 1518 1519 1519 1520 1521 1521 1522 1522 1523 1524
1492 1491 1491 1491 1492 1493 1494 1495 1496 1498 1500 1501 1502 1503 1504 1505 1506 1507 1508 1509 1510 1511 1511 1512 1512 1513 1514 1514 1515 1515 1516 1516 1516 1515 1516 1516 1517 1518 1518 1519 1519 1520 1520
1490 1490 1490 1490 1490 1491 1492 1493 1494 1496 1497 1498 1499 1500 1501 1502 1503 1504 1505 1506 1507 1508 1508 1509 1509 1510 1511 1511 1512 1512 1512 1513 1513 1513 1513 1513 1514 1514 1515 1515 1516 1517 1517
1488 1488 1488 1488 1488 1489 1490 1491 1492 1493 1494 1495 1496 1497 1498 1499 1500 1501 1502 1503 1504 1504 1505 1506 1506 1507 1507 1508 1508 1508 1509 1509 1509 1509 1510 1510 1511 1511 1511 1512 1512 1513 1513
1486 1486 1486 1486 1486 1487 1487 1488 1489 1490 1491 1492 1493 1494 1495 1496 1497 1498 1499 1500 1501 1502 1502 1503 1503 1504 1503 1504 1505 1505 1505 1505 1506 1506 1506 1506 1506 1506 1507 1507 1508 1508 1509
1484 1483 1483 1483 1483 1484 1484 1485 1485 1486 1487 1488 1489 1490 1491 1492 1493 1494 1495 1496 1497 1498 1499 1499 1500 1500 1500 1501 1501 1501 1502 1502 1502 1502 1501 1502 1502 1502 1502 1503 1503 1504 1504